#timestamp,LO_Frequency,Hit,StdDev 
1664582415.2,286047005.4,Y
1664582435.1,286047001.6,P
1664582436.0,286047001.6,N
1664582455.8,286047001.3,N
1664582475.6,286047004.3,Y
1664582495.5,286047000.0,P
1664582515.3,286047000.5,N
1664582535.2,286046999.7,N
1664582555.9,286046999.7,N
1664582575.7,286047001.6,N
1664582595.6,286047000.2,N
1664582615.4,286047000.4,N
1664582635.3,286046999.9,N
1664582655.1,286047000.2,N
1664582675.8,286047002.4,Y
1664582695.7,286047000.2,P
1664582715.5,286046998.6,P
1664582735.4,286046998.7,N
1664582755.2,286047001.0,N
1664582775.0,286047000.4,N
1664582775.9,286047000.4,N
1664582795.8,286046998.2,N
1664582815.6,286046998.5,N
1664582835.4,286046998.5,N
1664582855.3,286047001.2,N
1664582875.1,286047000.7,N
1664582895.9,286047001.1,N
1664582915.7,286047001.2,N
1664582935.5,286046998.3,N
1664582955.4,286046998.9,N
1664582975.2,286046998.3,N
1664582995.0,286046998.8,N
1664582996.0,286046998.8,N
1664583015.8,286046998.6,N
1664583035.6,286047001.2,N
1664583055.5,286047000.8,N
1664583075.3,286047001.2,N
1664583095.1,286046999.3,N
1664583115.9,286046999.0,N
1664583135.7,286046996.7,N
1664583155.6,286046995.6,Y
1664583175.4,286046995.4,P
1664583195.2,286046996.1,N
1664583215.1,286046995.1,N
1664583216.0,286046995.1,N
1664583235.8,286046995.9,N
1664583255.7,286046995.2,Y
1664583275.5,286046999.2,P
1664583295.3,286046996.5,N
1664583315.2,286046996.9,N
1664583335.0,286046997.4,N
1664583335.9,286046997.4,N
1664583355.8,286046995.8,Y
1664583375.6,286046998.8,P
1664583395.4,286046999.2,N
1664583415.3,286046998.7,N
1664583435.1,286046998.8,N
1664583455.8,286046999.4,N
1664583475.7,286046997.5,Y
1664583495.5,286046999.5,P
1664583515.4,286046997.8,P
1664583535.2,286046995.0,P
1664583555.0,286046995.4,N
1664583555.9,286046995.4,N
1664583575.8,286046997.7,N
1664583595.6,286046997.6,N
1664583615.4,286046997.3,N
1664583635.3,286046997.4,N
1664583655.1,286046997.7,N
1664583675.9,286046997.1,N
1664583695.7,286046996.7,N
1664583715.5,286046997.8,N
1664583735.4,286046995.3,Y
1664583755.2,286046999.4,P
1664583775.1,286046998.9,N
1664583776.0,286046998.9,N
1664583795.8,286046997.1,Y
1664583815.6,286046999.1,P
1664583835.5,286046998.4,P
1664583855.3,286046996.8,P
1664583875.2,286046999.1,N
1664583895.9,286046998.7,N
1664583915.7,286046998.3,N
1664583935.6,286046998.5,N
1664583955.4,286047001.2,N
1664583975.2,286047000.4,N
1664583995.1,286047000.9,N
1664583996.0,286047000.9,N
1664584015.8,286046998.5,N
1664584035.7,286046998.1,N
1664584055.5,286046996.9,N
1664584075.3,286046996.6,N
1664584095.2,286046999.3,N
1664584115.0,286046999.5,N
1664584115.9,286046999.5,N
1664584135.7,286046999.5,N
1664584155.6,286046998.8,N
1664584175.4,286046997.2,N
1664584195.3,286046996.7,N
1664584215.1,286046996.7,N
1664584216.0,286046996.7,N
1664584235.8,286046996.9,N
1664584255.7,286046998.0,N
1664584275.5,286046995.3,Y
1664584295.3,286046998.0,P
1664584315.2,286046993.4,P
1664584335.0,286046993.7,N
1664584335.9,286046993.7,N
1664584355.8,286046996.3,N
1664584375.6,286046993.7,N
1664584395.4,286046993.8,Y
1664584415.3,286046999.0,P
1664584435.1,286046999.4,N
1664584455.9,286046999.6,N
1664584475.7,286046998.6,N
1664584495.5,286047000.9,N
1664584515.4,286047000.0,N
1664584535.2,286047001.0,N
1664584555.0,286047000.5,N
1664584555.9,286047000.5,N
1664584575.8,286047002.8,N
1664584595.6,286047000.4,N
1664584615.5,286046998.9,N
1664584635.3,286046998.6,N
1664584655.1,286046998.1,N
1664584675.9,286046999.0,N
1664584695.7,286046999.3,N
1664584715.6,286046998.7,N
1664584735.4,286046999.5,N
1664584755.2,286047000.7,N
1664584775.1,286047000.5,N
1664584776.0,286047000.5,N
1664584795.8,286047000.6,N
1664584815.6,286047001.0,N
1664584835.5,286047000.6,N
1664584855.3,286047000.7,N
1664584875.2,286047000.9,N
1664584895.9,286046998.2,N
1664584915.7,286046998.4,N
1664584935.6,286046997.0,N
1664584955.4,286046997.1,N
1664584975.3,286046999.2,N
1664584995.1,286046996.5,N
1664584996.0,286046996.5,N
1664585015.8,286046998.9,N
1664585035.7,286046999.1,N
1664585055.5,286046999.5,N
1664585075.3,286046999.1,N
1664585095.2,286046997.0,N
1664585115.0,286046997.1,N
1664585115.9,286046997.1,N
1664585135.8,286046997.4,N
1664585155.6,286046996.5,N
1664585175.4,286046997.8,N
1664585195.3,286046996.7,N
1664585215.1,286046997.2,N
1664585235.8,286046996.7,N
1664585255.7,286046999.0,N
1664585275.5,286046999.6,N
1664585295.4,286046996.8,N
1664585315.2,286046997.1,N
1664585335.0,286046997.6,N
1664585335.9,286046997.6,N
1664585355.8,286046997.6,N
1664585375.6,286046997.4,N
1664585395.4,286046996.7,N
1664585415.3,286046997.3,N
1664585435.1,286046999.2,N
1664585455.9,286046998.4,N
1664585475.7,286046998.2,N
1664585495.5,286047000.9,N
1664585515.4,286047000.9,N
1664585535.2,286047000.9,N
1664585555.0,286047000.0,N
1664585556.0,286047000.0,N
1664585575.8,286047000.3,N
1664585595.6,286047000.7,N
1664585615.5,286046998.7,N
1664585635.3,286046998.4,N
1664585655.1,286046998.7,N
1664585675.9,286046999.0,N
1664585695.7,286046997.3,N
1664585715.6,286046996.9,N
1664585735.4,286046997.3,N
1664585755.2,286046996.7,N
1664585775.1,286046996.8,N
1664585776.0,286046996.8,N
1664585795.8,286046998.0,N
1664585815.6,286046997.5,N
1664585835.5,286046997.6,N
1664585855.3,286046999.3,N
1664585875.2,286046998.9,N
1664585895.9,286046998.4,N
1664585915.7,286046999.3,N
1664585935.6,286046998.8,N
1664585955.4,286047000.3,N
1664585975.2,286047001.0,N
1664585995.1,286047000.9,N
1664585996.0,286047000.9,N
